Location: O'Brien
(30.0517°N, 82.9900°W)
Time: 04:45:49
(UTC-05:00)

Envisat - Visible Passes

Search period start: 19 November 2019 00:00
Search period end: 29 November 2019 00:00
Orbit: 764 x 766 km, 98.1° (Epoch: 18 November)

Date Brightness Start Highest point End Pass type
(mag) Time Alt. Az. Time Alt. Az. Time Alt. Az.
19 Nov 6.2 06:08:32 10° ENE 06:11:14 14° E 06:13:56 10° SE visible
19 Nov 3.4 18:53:49 10° S 18:58:50 67° WSW 19:03:53 10° NNW visible
20 Nov 3.2 18:17:17 10° SSE 18:22:09 49° ENE 18:27:02 10° N visible
20 Nov 6.0 19:58:51 10° WSW 20:01:21 14° W 20:03:52 10° WNW visible
21 Nov 5.5 06:32:34 10° NE 06:36:53 28° E 06:41:10 10° SSE visible
21 Nov 4.6 19:19:48 10° SSW 19:24:23 34° W 19:28:59 10° NNW visible
22 Nov 6.6 05:58:52 10° E 05:59:52 11° E 06:00:51 10° ESE visible
22 Nov 3.0 18:42:30 10° SSE 18:47:34 87° W 18:52:39 10° NNW visible
23 Nov 3.5 18:06:18 10° SE 18:10:56 38° ENE 18:15:35 10° N visible
23 Nov 5.7 19:46:34 10° SW 19:49:59 18° W 19:53:26 10° NW visible
24 Nov 5.9 06:21:45 10° NE 06:25:34 21° E 06:29:20 10° SE visible
24 Nov 4.1 19:08:14 10° S 19:13:04 45° W 19:17:56 10° NNW visible
25 Nov 2.9 18:31:17 10° SSE 18:36:19 72° ENE 18:41:23 10° N visible
26 Nov 3.8 17:55:25 10° SE 17:59:44 29° ENE 18:04:04 10° NNE visible
26 Nov 5.3 19:34:38 10° SSW 19:38:39 24° W 19:42:42 10° NW visible
27 Nov 6.0 06:11:08 10° ENE 06:14:12 16° E 06:17:17 10° SE visible
27 Nov 3.6 18:56:48 10° S 19:01:47 60° W 19:06:48 10° NNW visible
28 Nov 3.1 18:20:09 10° SSE 18:25:04 55° ENE 18:30:02 10° N visible
28 Nov 6.1 20:02:21 10° WSW 20:04:19 12° W 20:06:18 10° WNW visible
